Lewistown, MT

4:02 AM MDT on August 30, 2016 (GMT -0600)
Lewistown Municipal

Weather History for KLWT - May, 2014

Change the Weather History Date:

Saturday, May 31, 2014

  Actual Average Record
Temperature  
Mean Temperature 56 °F 54 °F  
Max Temperature 65 °F 66 °F 87 °F (1936)
Min Temperature 46 °F 42 °F 24 °F (1982)
Degree Days  
Heating Degree Days 9 11  
Month to date heating degree days 458 466  
Since 1 July heating degree days 8348 7974  
Cooling Degree Days 0 0  
Month to date cooling degree days 0 2  
Year to date cooling degree days 0 2  
Growing Degree Days 6 (Base 50)    
Moisture  
Dew Point 45 °F    
Average Humidity 72    
Maximum Humidity 93    
Minimum Humidity 51    
Precipitation  
Precipitation T in 0.12 in 1.56 in (2013)
Month to date precipitation 1.70 2.85  
Year to date precipitation 5.46 6.26  
Snow  
Snow 0.00 in - - ()
Snow Depth 0.00 in    
Sea Level Pressure  
Sea Level Pressure 29.90 in    
Wind  
Wind Speed 8 mph (NW)    
Max Wind Speed 29 mph    
Max Gust Speed 36 mph    
Visibility 10 miles    
Events      
T = Trace of Precipitation, MM = Missing Value Source: NWS Daily Summary

Daily Weather History Graph

Daily Weather History Graph

Search for Another Location

Airport or City:

Trip Planner

Search our weather history database for the weather conditions in past years. The results will help you decide how hot, cold, wet, or windy it might be!

Date:

Astronomy

May. 31, 2014 Rise Set
Actual Time 5:27 AM MDT 9:04 PM MDT
Civil Twilight 4:48 AM MDT 9:43 PM MDT
Nautical Twilight 3:57 AM MDT 10:34 PM MDT
Astronomical Twilight 2:47 AM MDT 11:45 PM MDT
Moon 8:12 AM MDT (5/31) 11:17 PM MDT (5/31)
Length of Visible Light 16h 54m
Length of Day
15h 37m
Waxing Crescent, 9% of the Moon is Illuminated
May 31
Waxing Crescent
Jun 5
First Quarter
Jun 12
Full
Jun 19
Last Quarter
Jun 27
New

Hourly Weather History & Observations

Time (MDT) Temp. Dew Point Humidity Pressure Visibility Wind Dir Wind Speed Gust Speed Precip Events Conditions
12:54 AM 57.9 °F 39.9 °F 51% 29.94 in 10.0 mi East 13.8 mph - N/A   Clear
1:54 AM 55.9 °F 41.0 °F 57% 29.93 in 10.0 mi NE 4.6 mph - N/A   Partly Cloudy
2:54 AM 53.1 °F 41.0 °F 64% 29.91 in 10.0 mi East 5.8 mph - N/A   Clear
3:54 AM 53.1 °F 41.0 °F 64% 29.90 in 10.0 mi East 8.1 mph - N/A   Clear
4:54 AM 52.0 °F 42.1 °F 69% 29.89 in 10.0 mi ESE 5.8 mph - N/A   Clear
5:54 AM 52.0 °F 43.0 °F 71% 29.89 in 10.0 mi SE 3.5 mph - N/A   Clear
6:54 AM 53.1 °F 45.0 °F 74% 29.89 in 10.0 mi West 5.8 mph - N/A   Clear
7:54 AM 57.0 °F 46.9 °F 69% 29.86 in 10.0 mi South 4.6 mph - N/A   Clear
9:54 AM 60.1 °F 46.9 °F 62% 29.88 in 10.0 mi WNW 8.1 mph - N/A   Clear
10:54 AM 61.0 °F 50.0 °F 67% 29.87 in 10.0 mi NW 9.2 mph - N/A   Clear
11:54 AM 60.1 °F 48.9 °F 67% 29.91 in 10.0 mi West 9.2 mph - N/A   Overcast
12:54 PM 57.9 °F 48.0 °F 70% 29.90 in 10.0 mi NNW 8.1 mph - 0.00 in   Overcast
1:54 PM 57.9 °F 44.1 °F 60% 29.92 in 10.0 mi NW 6.9 mph - N/A   Mostly Cloudy
2:54 PM 61.0 °F 45.0 °F 56% 29.88 in 10.0 mi Calm Calm - N/A   Clear
3:54 PM 63.0 °F 50.0 °F 63% 29.86 in 10.0 mi NW 12.7 mph - N/A   Clear
4:54 PM 63.0 °F 48.9 °F 60% 29.86 in 10.0 mi NW 9.2 mph - N/A   Clear
5:54 PM 61.0 °F 48.0 °F 62% 29.89 in 10.0 mi NW 9.2 mph - N/A   Clear
6:54 PM 61.0 °F 46.9 °F 60% 29.88 in 10.0 mi NW 9.2 mph - N/A   Mostly Cloudy
7:54 PM 57.9 °F 46.0 °F 65% 29.90 in 10.0 mi WNW 16.1 mph - N/A   Overcast
8:54 PM 53.1 °F 46.0 °F 77% 29.87 in 10.0 mi SW 12.7 mph - 0.00 in   Overcast
9:54 PM 51.1 °F 46.0 °F 83% 29.92 in 10.0 mi NNW 5.8 mph - N/A   Clear
10:54 PM 50.0 °F 44.1 °F 80% 29.94 in 10.0 mi NW 5.8 mph - N/A   Clear
11:54 PM 46.9 °F 44.1 °F 90% 29.95 in 10.0 mi WSW 9.2 mph - N/A   Clear